DateTimeUTC,F1_A11,F1_S11,BsB_S11,BsG_S11,BsR_S11,BbsB_S11,BbsG_S11,BbsR_S11,BaB_A11,BaG_A11,BaR_A11,Tu_S11,T_S11,Uu_S11,U_S11,P_S11,T1_A11
2021-07-15T17:00:00Z,00000200,20000000,,,,,,,0000.02,-000.30,-000.04,18.6,24.9,09.0,06.1,0661.6,31.0
2021-07-15T17:01:00Z,00000200,20000000,,,,,,,0000.06,-000.42,0000.07,18.5,24.9,09.0,06.1,0661.5,31.1
2021-07-15T17:02:00Z,00000200,20000000,,,,,,,0000.12,0000.78,-000.04,18.5,24.9,09.0,06.1,0661.6,31.0
2021-07-15T17:03:00Z,00000200,60000000,,,,,,,0000.07,-000.15,0000.23,18.5,24.9,09.0,06.1,0661.6,31.0
2021-07-15T17:04:00Z,00000200,40000000,0000.69,0000.72,0000.33,-000.02,0000.24,0000.05,-000.22,-000.06,-000.44,18.6,24.8,09.3,06.3,0662.4,31.0
2021-07-15T17:05:00Z,00000200,00000000,0001.14,0000.35,0000.20,-000.07,0000.01,-000.59,0000.53,0000.40,0000.42,18.6,24.7,09.2,06.3,0662.4,31.0
2021-07-15T17:06:00Z,00000200,00000000,0000.81,0000.65,0000.31,-000.15,-000.24,0000.04,0000.09,0000.09,-000.11,18.6,24.7,09.0,06.2,0662.3,31.0
2021-07-15T17:07:00Z,00000200,00000000,0000.41,0000.67,0000.51,-000.00,0000.26,0000.06,0000.54,0000.26,0000.44,18.7,24.8,09.3,06.4,0662.6,31.0
2021-07-15T17:08:00Z,00000200,00000000,0000.68,0000.61,0000.40,-000.55,0000.04,0000.11,-000.23,-000.02,-000.14,18.7,24.8,09.1,06.3,0662.2,31.0
2021-07-15T17:09:00Z,00000200,00000000,0001.00,0000.44,0000.14,-000.13,0000.24,0000.19,0000.34,0000.35,0000.40,18.7,24.8,09.0,06.2,0662.5,31.0
2021-07-15T17:10:00Z,00000200,00000000,0000.59,0000.52,0000.54,-000.05,0000.08,-000.04,0000.08,-000.05,0000.04,18.7,24.8,09.1,06.3,0662.6,31.0
2021-07-15T17:11:00Z,00000200,00000000,0001.31,0000.62,0000.21,0000.80,0000.18,0000.11,0000.10,0000.08,0000.08,18.7,24.8,09.1,06.3,0662.5,31.0
2021-07-15T17:12:00Z,00000200,00000000,0000.83,0000.51,0000.36,0000.47,0000.18,0000.24,0000.41,0000.32,0000.13,18.7,24.8,09.2,06.3,0662.5,31.0
2021-07-15T17:13:00Z,00000200,00000000,0000.25,0000.50,0000.13,0000.62,0000.06,-000.08,-000.37,-000.37,-000.25,18.7,24.7,08.9,06.2,0662.2,31.0
2021-07-15T17:14:00Z,00000200,00000000,0000.48,0000.62,0000.15,0000.00,0000.13,-000.05,0000.28,0000.41,0000.17,18.7,24.7,08.7,06.0,0662.3,31.0
2021-07-15T17:15:00Z,00000200,00000000,0000.44,0000.74,0000.23,0000.37,-000.21,0000.15,-000.10,0000.15,0000.16,18.7,24.7,08.8,06.1,0662.4,31.0
2021-07-15T17:16:00Z,00000200,00000000,0000.93,0000.54,0000.24,-000.56,0000.31,0000.17,0000.21,0000.01,-000.09,18.7,24.7,08.8,06.1,0662.4,31.0
2021-07-15T17:17:00Z,00000200,00000000,0000.84,0000.52,0000.21,-000.76,-000.10,-000.21,0000.54,0000.30,0000.54,18.7,24.7,09.0,06.2,0662.5,31.0
2021-07-15T17:18:00Z,00000200,00000000,0001.47,0000.84,0000.60,-000.01,0000.08,0000.02,-000.07,0000.11,0000.03,18.6,24.7,09.2,06.4,0662.6,31.0
2021-07-15T17:19:00Z,00000200,00000000,0000.47,0000.71,0000.39,-000.60,0000.14,-000.02,0000.48,0000.18,0000.16,18.6,24.7,09.1,06.3,0662.4,31.0
2021-07-15T17:20:00Z,00000200,00000000,0001.15,0000.55,0000.31,0000.02,0000.14,0000.03,-000.05,0000.18,0000.09,18.6,24.7,09.0,06.2,0662.6,31.0
2021-07-15T17:21:00Z,00000200,00000000,0000.78,0000.42,0000.35,0000.81,0000.41,-000.01,0000.37,0000.07,0000.27,18.7,24.7,09.0,06.3,0662.8,31.0
2021-07-15T17:22:00Z,00000200,00000000,0000.89,0000.40,0000.34,0000.04,0000.07,-000.19,-000.01,0000.14,0000.09,18.7,24.7,09.0,06.2,0662.5,31.0
2021-07-15T17:23:00Z,00000200,00000000,0001.17,0000.29,0000.34,-000.06,0000.25,-000.04,0000.29,0000.47,0000.19,18.7,24.8,08.9,06.1,0662.6,31.0
2021-07-15T17:24:00Z,00000200,00000000,0000.95,0000.81,0000.28,0000.26,-000.07,0000.10,0000.00,0000.07,-000.09,18.7,24.8,08.9,06.2,0662.4,31.0
2021-07-15T17:25:00Z,00000200,00000000,0000.87,0000.35,0000.48,-000.05,0000.27,-000.16,0000.21,-000.08,0000.05,18.8,24.8,08.8,06.1,0662.3,31.0
2021-07-15T17:26:00Z,00000200,00000000,0000.75,0000.45,0000.49,0000.59,-000.04,-000.08,0000.13,0000.32,0000.11,18.7,24.8,08.7,06.0,0662.5,31.0
2021-07-15T17:27:00Z,00000200,00000000,0000.80,0000.55,0000.37,0000.85,-000.01,0000.06,0000.18,0000.00,0000.20,18.7,24.7,08.9,06.2,0662.7,31.0
2021-07-15T17:28:00Z,00000200,00000000,0000.45,0000.87,0000.66,0000.07,0000.07,0000.56,0000.46,0000.23,0000.18,18.7,24.7,09.0,06.2,0662.8,31.0
2021-07-15T17:29:00Z,00000200,00000000,0000.97,0000.75,0000.18,-000.23,0000.22,0000.08,-000.03,0000.10,-000.01,18.7,24.7,09.0,06.2,0662.8,31.0
2021-07-15T17:30:00Z,00000200,00000000,0000.70,0000.54,0000.10,0000.44,0000.09,0000.08,0000.20,0000.05,0000.02,18.7,24.7,09.1,06.3,0662.9,31.0
2021-07-15T17:31:00Z,00000200,00000000,0000.31,0000.52,-000.00,-000.12,0000.31,0000.04,0000.10,0000.59,0000.24,18.7,24.7,09.2,06.4,0662.9,31.0
2021-07-15T17:32:00Z,00000200,00000000,0000.46,0000.47,0000.57,0000.86,-000.33,0000.09,0000.13,-000.24,0000.13,18.7,24.7,09.2,06.4,0662.7,31.0
2021-07-15T17:33:00Z,00000200,00000000,0001.05,0000.68,0000.12,0000.27,-000.02,-000.04,-000.00,-000.09,0000.25,18.6,24.7,09.2,06.3,0662.8,31.0
2021-07-15T17:34:00Z,00000200,00000000,0001.03,0000.68,0000.50,0000.41,-000.11,0000.07,-000.09,-000.13,-000.36,18.6,24.7,09.1,06.3,0662.6,31.0
2021-07-15T17:35:00Z,00000200,00000000,0001.16,0000.31,0000.08,0000.25,-000.19,-000.08,0000.37,0000.51,0000.33,18.6,24.7,08.9,06.1,0662.6,31.0
2021-07-15T17:36:00Z,00000200,00000000,-000.34,0000.67,0000.44,0000.02,0000.08,-000.18,-000.05,0000.06,-000.13,18.6,24.7,09.0,06.2,0662.5,31.0
2021-07-15T17:37:00Z,00000200,00000000,0001.00,0000.68,0000.05,0000.04,0000.01,-000.26,0000.54,0000.36,0000.57,18.6,24.7,09.0,06.2,0662.6,31.0
2021-07-15T17:38:00Z,00000200,00000000,0000.64,0000.63,0000.22,0000.36,-000.14,-000.14,0000.16,0000.21,-000.31,18.6,24.7,09.2,06.4,0662.8,31.0
2021-07-15T17:39:00Z,00000200,00000000,0000.36,0000.83,-000.10,0000.03,0000.15,0000.10,0000.25,0000.06,0000.49,18.6,24.7,09.3,06.4,0662.8,31.0
2021-07-15T17:40:00Z,00000200,00000000,0000.79,0000.83,0000.19,0000.59,0000.17,-000.08,0000.20,0000.39,-000.12,18.6,24.6,09.4,06.5,0662.7,31.0
2021-07-15T17:41:00Z,00000200,00000000,0000.37,0000.41,0000.39,0000.33,0000.13,0000.12,-000.42,-000.39,0000.28,18.6,24.6,09.2,06.3,0662.4,31.0
2021-07-15T17:42:00Z,00000200,00000000,0000.96,0000.84,0000.20,-000.05,0000.05,-000.05,0000.53,0000.27,0000.20,18.6,24.6,09.2,06.3,0662.7,31.0
2021-07-15T17:43:00Z,00000200,00000000,0000.15,0000.53,0000.23,0000.19,-000.02,-000.07,0000.15,0000.35,0000.05,18.6,24.6,09.2,06.4,0662.7,31.0
2021-07-15T17:44:00Z,00000200,00000000,0001.13,0000.27,0000.03,0000.17,-000.07,-000.10,0000.05,0000.11,-000.12,18.6,24.6,09.2,06.4,0662.6,31.0
2021-07-15T17:45:00Z,00000200,00000000,0000.35,0000.83,0000.33,0000.37,0000.35,-000.16,0000.18,0000.23,0000.05,18.6,24.6,09.0,06.2,0662.6,31.0
2021-07-15T17:46:00Z,00000200,00000000,0000.53,0000.58,0000.17,0000.49,0000.07,-000.04,0000.02,-000.17,0000.27,18.6,24.6,09.1,06.3,0662.7,31.0
2021-07-15T17:47:00Z,00000200,00000000,0000.00,0000.87,0000.29,0000.54,-000.10,-000.10,0000.28,0000.53,0000.45,18.6,24.6,09.3,06.4,0662.7,31.0
2021-07-15T17:48:00Z,00000200,00000000,0000.19,0000.37,0000.13,-000.00,0000.20,-000.12,0000.48,-000.04,-000.01,18.5,24.6,09.2,06.4,0662.8,31.0
2021-07-15T17:49:00Z,00000200,00000000,0001.16,0000.42,0000.12,0000.14,0000.12,0000.14,0000.08,0000.20,-000.12,18.5,24.6,09.4,06.5,0662.7,31.0
2021-07-15T17:50:00Z,00000200,00000000,0001.11,0000.62,0000.64,-000.05,0000.06,0000.11,-000.41,0000.43,-000.11,18.5,24.6,09.2,06.3,0662.6,31.0
2021-07-15T17:51:00Z,00000200,00000000,0000.30,0000.59,0000.60,-000.05,0000.18,0000.15,0000.68,-000.09,0000.46,18.5,24.6,09.0,06.3,0662.5,31.0
2021-07-15T17:52:00Z,00000200,00000000,0000.49,0000.51,0000.24,0000.48,-000.20,-000.16,0000.18,0000.26,0000.20,18.6,24.6,09.2,06.3,0662.8,31.0
2021-07-15T17:53:00Z,00000200,00000000,0001.13,0000.37,0000.35,0000.13,-000.02,0000.18,0000.30,0000.28,0000.41,18.7,24.7,09.2,06.4,0662.8,31.0
2021-07-15T17:54:00Z,00000200,00000000,0000.57,0000.82,0000.09,-000.24,0000.03,-000.16,0000.20,0000.07,-000.23,18.8,24.7,09.2,06.4,0662.7,31.1
2021-07-15T17:55:00Z,00000200,00000000,0000.94,0000.72,-000.02,0000.12,-000.00,-000.29,0000.04,0000.22,0000.41,18.9,24.8,09.0,06.3,0662.9,31.1
2021-07-15T17:56:00Z,00000200,00000000,0000.54,0000.74,0000.49,-000.49,-000.04,-000.03,0000.31,-000.07,-000.18,18.9,24.8,09.2,06.4,0662.8,31.0
2021-07-15T17:57:00Z,00000200,40000000,,,,,,,-000.09,0000.09,0000.14,18.9,24.8,08.7,06.1,0662.8,31.0
2021-07-15T17:58:00Z,00000200,60000000,,,,,,,-000.09,-000.19,-000.53,18.7,24.9,09.2,06.3,0661.9,31.1
2021-07-15T17:59:00Z,00000200,20000000,,,,,,,0000.01,0000.16,0000.39,18.7,25.0,09.1,06.2,0662.0,31.1
